Back to catalog

CZ-6A DEB

AliveSSO
NORAD 56256·DEBRIS·🇨🇳 China

Launched Nov 11, 2022 from Taiyuan Satellite Launch Center

Loading…

Next Passes (next 24 hours)

TLE

FreshSource: Space-Track

Epoch: Sep 14, 2026, 11:07 UTC

1 56256U 22151ABY 26257.46342775  .00001221  00000-0  24917-3 0  9997
2 56256  98.5655 324.5394 0140621 272.4085  86.1020 14.56949142184966

Track CZ-6A DEB in real time with AllMySat

Download on the App Store